{"data":{"norad_id":64179,"epoch":"2026-05-25T03:03:39.280608Z","epoch_age_seconds":74462,"freshness":"FRESH","line1":"1 64179U 25113K   26145.12753797  .00032772  00000+0  97678-3 0  9998","line2":"2 64179  53.1598  94.9840 0001388  84.9472 275.1689 15.34401890 56787","mean_motion":15.3440189,"eccentricity":0.0001388,"inclination_deg":53.1598,"raan_deg":94.984,"arg_perigee_deg":84.9472,"mean_anomaly_deg":275.1689,"bstar":0.00097678,"rev_number":5678,"period_min":93.84764248433,"perigee_km":461.74811488894,"apogee_km":463.64713058021,"semimajor_km":6840.8346227346,"source":"CELESTRAK","updated_at":"2026-05-25T13:38:20.311072Z"}}